Tracking 19846 objects as of 20-Sep-2019
HD Live streaming from Space Station
objects crossing your sky now

FENGYUN 1C DEB

Track FENGYUN 1C DEB now!
10-day predictions


NORAD ID: 35162
Int'l Code: 1999-025DMS
Perigee: 660.2 km
Apogee: 813.8 km
Inclination: 96.7 °
Period: 99.4 minutes
Semi major axis: 7107 km
RCS: 0.0069 m2 (small)
Launch date: May 10, 1999
Source: People's Republic of China (PRC)
Launch site: Taiyaun Space Center, China (TSC)

Note: This is SATELLITE DEBRIS
aabbcc
Your satellite tracking list
Your tracking list is empty




NASA's NSSDC Master Catalog

Two Line Element Set (TLE):
1 35162U 99025DMS 19262.01083186  .00002006  00000-0  50253-3 0  9995
2 35162  96.7462 349.2649 0108092 207.6517 151.8907 14.48711587623332
Source of the keplerian elements: AFSPC